TimeCST,TemperatureF,Dew PointF,Humidity,Sea Level PressureIn,VisibilityMPH,Wind Direction,Wind SpeedMPH,Gust SpeedMPH,PrecipitationIn,Events,Conditions,WindDirDegrees,DateUTC
12:55 AM,16.2,0.9,51,30.41,10.0,NNE,6.9,-,N/A,,Overcast,20,2013-01-22 06:55:00
1:55 AM,16.0,0.3,50,30.41,10.0,NNE,9.2,-,N/A,,Overcast,20,2013-01-22 07:55:00
2:55 AM,15.8,0.3,51,30.42,10.0,NNE,5.8,-,N/A,,Overcast,30,2013-01-22 08:55:00
3:55 AM,15.6,0.3,51,30.43,10.0,NNE,6.9,-,N/A,,Overcast,30,2013-01-22 09:55:00
4:55 AM,15.3,2.3,57,30.41,10.0,NNE,8.1,-,N/A,,Overcast,30,2013-01-22 10:55:00
5:55 AM,13.8,2.7,61,30.41,10.0,NE,4.6,-,N/A,,Scattered Clouds,50,2013-01-22 11:55:00
6:55 AM,12.2,3.6,68,30.43,10.0,NNE,4.6,-,N/A,,Partly Cloudy,30,2013-01-22 12:55:00
7:55 AM,14.5,3.2,61,30.42,10.0,ENE,4.6,-,N/A,,Overcast,70,2013-01-22 13:55:00
8:55 AM,16.2,1.8,53,30.45,10.0,East,4.6,-,N/A,,Mostly Cloudy,90,2013-01-22 14:55:00
9:55 AM,17.8,1.6,49,30.46,10.0,Variable,5.8,-,N/A,,Overcast,0,2013-01-22 15:55:00
10:55 AM,19.6,2.1,47,30.47,10.0,Variable,6.9,-,N/A,,Overcast,0,2013-01-22 16:55:00
11:55 AM,22.3,2.1,42,30.44,10.0,East,5.8,-,N/A,,Partly Cloudy,100,2013-01-22 17:55:00
12:55 PM,24.4,3.9,41,30.40,10.0,ESE,6.9,-,N/A,,Clear,110,2013-01-22 18:55:00
1:55 PM,27.0,5.4,40,30.36,10.0,East,6.9,-,N/A,,Clear,100,2013-01-22 19:55:00
2:55 PM,28.9,7.2,40,30.35,10.0,East,6.9,-,N/A,,Clear,80,2013-01-22 20:55:00
3:55 PM,28.6,7.7,41,30.32,10.0,East,6.9,-,N/A,,Clear,90,2013-01-22 21:55:00
4:55 PM,27.3,8.1,44,30.32,10.0,East,5.8,-,N/A,,Clear,80,2013-01-22 22:55:00
5:55 PM,23.7,10.4,57,30.33,10.0,ENE,5.8,-,N/A,,Clear,60,2013-01-22 23:55:00
6:55 PM,21.9,10.8,62,30.33,10.0,ENE,4.6,-,N/A,,Clear,70,2013-01-23 00:55:00
7:55 PM,20.5,10.8,66,30.34,10.0,NE,5.8,-,N/A,,Clear,50,2013-01-23 01:55:00
8:55 PM,19.4,11.7,72,30.34,10.0,East,5.8,-,N/A,,Clear,80,2013-01-23 02:55:00
9:55 PM,18.3,11.3,74,30.35,10.0,NE,5.8,-,N/A,,Clear,50,2013-01-23 03:55:00
10:55 PM,17.2,10.8,76,30.34,10.0,NE,3.5,-,N/A,,Clear,50,2013-01-23 04:55:00
11:55 PM,16.5,10.2,76,30.34,10.0,East,4.6,-,N/A,,Clear,90,2013-01-23 05:55:00